Englewood, Florida, United States (34223)
Lat: 26.96N, Lon: 82.35W
Wx Zone: FLZ060
Local Info
Past Weather Observations for Thursday, September 22, 2016

NOTE: This archive is for the closest National Weather Service station to Englewood. Information may differ from the station used for current weather conditions.

Click here for Long-term Archive

Time Weather Temperature Dewpoint Humidity Pressure Winds Precip Visibility
23:53
Clear
75°F / 24°C 72°F / 22°C 89% 30.01 in
(1016 mb)
Calm - 10SM
22:53
Clear
75°F / 24°C 72°F / 22°C 89% 30.01 in
(1016 mb)
SSE 4.6 mph
(SSE 7 kph)
- 10SM
21:53
Clear
77°F / 25°C 72°F / 22°C 83% 30.01 in
(1016 mb)
SE 4.6 mph
(SE 7 kph)
- 10SM
20:53
Clear
75°F / 24°C 73°F / 23°C 94% 30.01 in
(1016 mb)
SSE 4.6 mph
(SSE 7 kph)
0.00 in
(0.00 mm)
10SM
19:53
Overcast
81°F / 27°C 72°F / 22°C 74% 30.01 in
(1016 mb)
SSE 15 mph
(SSE 24 kph)
- 10SM
18:53
Clear
84°F / 29°C 72°F / 22°C 66% 29.98 in
(1015 mb)
SSE 3.5 mph
(SSE 6 kph)
- 10SM
17:53
Partly Cloudy
88°F / 31°C 70°F / 21°C 55% 29.95 in
(1014 mb)
Calm - 10SM
17:08
Clear
Thunder Storms
90°F / 32°C 70°F / 21°C 52% 29.95 in
(1014 mb)
W 9.2 mph
(W 15 kph)
- 10SM
16:53
Clear
90°F / 32°C 68°F / 20°C 49% 29.95 in
(1014 mb)
W 9.2 mph
(W 15 kph)
- 10SM
15:53
Clear
91°F / 33°C 70°F / 21°C 49% 29.95 in
(1014 mb)
W 8.1 mph
(W 13 kph)
- 10SM
15:29
Clear
91°F / 33°C 72°F / 22°C 52% 29.95 in
(1014 mb)
W 8.1 mph
(W 13 kph)
- 10SM
15:11
Clear
Thunder Storms
91°F / 33°C 72°F / 22°C 52% 29.95 in
(1014 mb)
W 8.1 mph
(W 13 kph)
- 10SM
14:53
Clear
91°F / 33°C 72°F / 22°C 52% 29.95 in
(1014 mb)
W 9.2 mph
(W 15 kph)
- 10SM
14:34
Partly Cloudy
Thunder Storms
91°F / 33°C 72°F / 22°C 52% 29.95 in
(1014 mb)
SSW 11.5 mph
(SSW 19 kph)
- 10SM
13:53
Partly Cloudy
91°F / 33°C 73°F / 23°C 56% 29.98 in
(1015 mb)
SSW 8.1 mph
(SSW 13 kph)
- 10SM
12:53
Clear
91°F / 33°C 70°F / 21°C 49% 29.98 in
(1015 mb)
Variable 4.6 mph
(Variable 7 kph)
- 10SM
11:53
Clear
91°F / 33°C 70°F / 21°C 49% 30.01 in
(1016 mb)
Variable 3.5 mph
(Variable 6 kph)
- 10SM
10:53
Clear
90°F / 32°C 72°F / 22°C 55% 30.01 in
(1016 mb)
Calm - 10SM
09:53
Clear
88°F / 31°C 73°F / 23°C 62% 30.01 in
(1016 mb)
Calm - 10SM
08:53
Clear
82°F / 28°C 75°F / 24°C 79% 30.04 in
(1017 mb)
Calm - 10SM
07:53
Clear
79°F / 26°C 75°F / 24°C 89% 30.01 in
(1016 mb)
E 3.5 mph
(E 6 kph)
- 10SM
06:53
Clear
75°F / 24°C 73°F / 23°C 94% 30.01 in
(1016 mb)
Calm - 8SM
05:53
Clear
Fog And Mist
73°F / 23°C 73°F / 23°C 100% 29.98 in
(1015 mb)
ENE 4.6 mph
(ENE 7 kph)
- 6SM
04:53
Clear
73°F / 23°C 73°F / 23°C 100% 29.98 in
(1015 mb)
Calm - 7SM
03:53
Clear
Fog And Mist
73°F / 23°C 73°F / 23°C 100% 29.98 in
(1015 mb)
Calm - 6SM
02:53
Clear
73°F / 23°C 73°F / 23°C 100% 29.98 in
(1015 mb)
Calm - 8SM
01:53
Clear
75°F / 24°C 73°F / 23°C 94% 29.98 in
(1015 mb)
NE 3.5 mph
(NE 6 kph)
- 9SM
00:53
Clear
75°F / 24°C 73°F / 23°C 94% 29.98 in
(1015 mb)
NE 4.6 mph
(NE 7 kph)
- 10SM
Time Weather Temperature Dewpoint Humidity Pressure Winds Precip Visibility


Weather for websites

WeatherForYou.com, LLC is not responsible for any damages or problems caused by this service. Current weather conditions are obtained from the closest station including government and personal stations which may have varying degrees of accuracy. Weather forecasts are derived from the NOAA NDFD. Like all things, this site belongs to Jesus Christ... He just trusts us to maintain it. If you have any questions or comments email webmaster@weatherforyou.com

Copyright © 2016, WeatherForYou.com LLC. All rights reserved.